Location: Earls Croome
(52.0667°N, 2.2000°W)
Time: 00:34:52
(UTC+00:00)

Cosmos 2322 - Pass Details

Date: 17 November 2019
Orbit: 841 x 854 km, 71.0° (Epoch: 15 December)

Event Time Altitude Azimuth Distance (km) Brightness Sun altitude
Exits shadow 05:25:26 11° 336° (NNW) 2,419 5.8 -19.1°
Maximum altitude 05:30:50 52° 52° (NE) 1,049 4.4 -18.3°
Drops below altitude 10° 05:36:21 10° 128° (SE) 2,466 7.0 -17.4°
Sets 05:38:51 0° 134° (SE) 3,396 7.8 -17.1°
